Regional Weather Roundup
Issued by NWS

Home | Current Version | Previous Version | Graphics & Text | Print | Product List | Glossary On
Versions: 1 2 3 4 5 6 7 8 9 10 11 12 13 14 15 16 17 18 19 20 21 22 23 24 25 26 27 28 29 30 31 32 33 34 35 36 37 38 39 40 41 42 43 44 45 46 47 48 49 50
000
ASUS43 KDTX 310910
RWRMI
MICHIGAN HOURLY REGIONAL WEATHER ROUNDUP
NATIONAL WEATHER SERVICE DETROIT/PONTIAC MI
500 AM EDT MON AUG 31 2015

NOTE: "FAIR" INDICATES FEW OR NO CLOUDS BELOW 12,000 FEET WITH NO
SIGNIFICANT WEATHER AND/OR OBSTRUCTION TO VISIBILITY.

MIZ047>049-052>055-059>063-066>070-074>076-081>083-311000-
SOUTHEAST LOWER MICHIGAN

CITY           SKY/WX    TMP DP  RH WIND       PRES   REMARKS
ADRIAN         FOG       61  61 100 CALM      30.06R VSB 1/4
ALMA           FOG       63  63 100 W5        30.04R VSB 1/4
ANN ARBOR      FOG       60  59  96 S3        30.04S VSB 1/4
BAD AXE        FOG       61  61 100 CALM      30.03R VSB 1/4
DETROIT CITY   CLEAR     68  65  90 SW3       30.03S FOG
DETROIT        PTCLDY    69  66  90 CALM      30.04R FOG
FLINT          FOG       60  57  89 CALM      30.04R VSB 1/4
GROSSE ILE     CLEAR     68  66  94 CALM      30.03R FOG
HILLSDALE      FOG       61  61 100 CALM      30.06S VSB<1/4
HOWELL         FOG       62  62  99 CALM      30.04S VSB 1/4

CITY           SKY/WX    TMP DP  RH WIND       PRES   REMARKS
JACKSON        FOG       60  59  96 SW5       30.05S VSB 1/4
LAMBERTVILLE   PTCLDY    64  62  93 CALM      30.05R FOG
LANSING        FOG       62  61  96 W5        30.05S VSB 1/8
LAPEER         NOT AVBL
MASON          FOG       60  58  92 CALM      30.05S VSB 1/4
MONROE         FOG       64  63  98 CALM      30.03S VSB 1/4
MT. CLEMENS    FOG       63  63 100 CALM      30.01R VSB 3/4
PONTIAC        CLEAR     64  63  96 W3        30.03S FOG
PORT HOPE        N/A     65  64  97 CALM      30.00S
PORT HURON     FOG       61  61 100 CALM      30.03R VSB 1/2
TRI CITIES     CLOUDY    66  63  90 W7        30.03R FOG
YPSILANTI      PTCLDY    66  62  87 SW3       30.04S FOG
$$
MIZ043>046-050>051-056>058-064>065-071>073-077>080-311000-
SOUTHWEST LOWER MICHIGAN

CITY           SKY/WX    TMP DP  RH WIND       PRES   REMARKS
BATTLE CREEK   MOCLDY    60  59  96 S3        30.06S FOG
BENTON HARBOR  PTCLDY    58  57  97 CALM      30.05R FOG
BIG RAPIDS     FOG       56  55  98 CALM      30.04S VSB 1/4
COLDWATER      FOG       61  61 100 CALM      30.05S VSB 1/4
HOLLAND        FOG       60  57  89 CALM      30.05S VSB 1/4
GRAND RAPIDS   FOG       64  64 100 W5        30.05S VSB 1
KALAMAZOO      FOG       60  58  92 CALM      30.06R VSB 1/4
MARSHALL       FOG       60  59  98 CALM      30.05S VSB<1/4
MUSKEGON       FOG       60  57  89 CALM      30.04S VSB 1/4
$$
MIZ016>042-311000-
NORTHERN LOWER MICHIGAN

CITY           SKY/WX    TMP DP  RH WIND       PRES   REMARKS
ALPENA         CLEAR     63  61  93 CALM      29.98S
BEAVER ISLAND  CLEAR     65  64  96 SW8       29.97S
BELLAIRE       FOG       58  56  96 CALM      30.01R VSB 1
CADILLAC       CLOUDY    61  60  97 SW6       30.03S FOG
CHARLEVOIX     CLEAR     63  63  99 CALM      30.02R FOG
FRANKFORT      CLOUDY    65  64  95 S3        30.01S FOG
GAYLORD        MOCLDY    60  60 100 SW6       30.01S FOG
GRAYLING       FOG       56  56  99 CALM      30.03R VSB 3/4
HARBOR SPRINGS CLOUDY    65  63  93 SW5       29.99R
HOUGHTON LAKE  CLEAR     63  60  90 W6        30.03S
MANISTEE       CLOUDY    57  54  88 CALM      30.03R VSB 1/4
OSCODA         FOG       60  59  99 SW5       29.99S VSB 1
PELLSTON       PTCLDY    65  63  93 W8        29.98S
TRAVERSE CITY  CLOUDY    65  62  90 SW8       30.00R
$$
MIZ007>008-015-311000-
EASTERN UPPER MICHIGAN

CITY           SKY/WX    TMP DP  RH WIND       PRES   REMARKS
KINROSS        CLOUDY    64  63  94 W6        29.96R
MACKINAC ISLAN MOCLDY    65  64  95 SW9G17    29.97R FOG
NEWBERRY       CLOUDY    62  62  99 SW8       29.96R FOG
S. S. MARIE    CLOUDY    65  63  93 CALM      29.95S
$$
MIZ004>006-011>014-085-311000-
CENTRAL UPPER MICHIGAN

CITY           SKY/WX    TMP DP  RH WIND       PRES   REMARKS
MANISTIQUE     CLEAR     63  62  97 SW6       29.95S FOG
ESCANABA       CLOUDY    59  57  94 CALM      29.95S VSB<1/4
MENOMINEE      CLEAR     63  61  94 W5        29.97S
SAWYER-GWINN   CLEAR     61  59  95 CALM      29.96S FOG
$$
MIZ001>003-009>011-084-311000-
WESTERN UPPER MICHIGAN

CITY           SKY/WX    TMP DP  RH WIND       PRES   REMARKS
IRON MOUNTAIN  CLEAR     64  61  90 CALM      29.96S
HOUGHTON       PTCLDY    64  61  90 SW5       29.91R
IRONWOOD       CLEAR     64  63  94 S9        29.92S
$$

ABBREVIATIONS USED IN REMARKS
   TC - TEMPERATURE IN CELSIUS
  WCI - WIND CHILL INDEX
   HX - HEAT INDEX
  VSB - VISIBILITY



USA.gov is the U.S. government's official web portal to all federal, state and local government web resources and services.